Danville, VA

4:30 PM EDT on April 29, 2017 (GMT -0400)
Danville Regional

Weather History for KDAN - November, 2011

Change the Weather History Date:

Monday, November 14, 2011

  Actual Average Record
Temperature  
Mean Temperature 60 °F 50 °F  
Max Temperature 74 °F 61 °F 83 °F (1989)
Min Temperature 46 °F 39 °F 20 °F (1986)
Degree Days  
Heating Degree Days 5 15  
Month to date heating degree days 240 182  
Since 1 July heating degree days 537 415  
Cooling Degree Days 0 0  
Month to date cooling degree days 0 0  
Year to date cooling degree days 1563 1436  
Growing Degree Days 10 (Base 50)    
Moisture  
Dew Point 49 °F    
Average Humidity 70    
Maximum Humidity 93    
Minimum Humidity 46    
Precipitation  
Precipitation 0.00 in 0.11 in 1.08 in (1972)
Month to date precipitation 1.34 1.64  
Year to date precipitation 33.18 39.42  
Snow  
Snow 0.00 in - - ()
Month to date snowfall 0.0  
Since 1 July snowfall 0.0  
Since 1 September snowfall 0.0  
Snow Depth 0.00 in    
Sea Level Pressure  
Sea Level Pressure 30.02 in    
Wind  
Wind Speed 8 mph (SW)    
Max Wind Speed 22 mph    
Max Gust Speed 30 mph    
Visibility 10 miles    
Events      
T = Trace of Precipitation, MM = Missing Value Source: NWS Daily Summary

Daily Weather History Graph

Daily Weather History Graph

Search for Another Location

Airport or City:

Trip Planner

Search our weather history database for the weather conditions in past years. The results will help you decide how hot, cold, wet, or windy it might be!

Date:

Astronomy

Nov. 14, 2011 Rise Set
Actual Time 6:53 AM EST 5:09 PM EST
Civil Twilight 6:26 AM EST 5:36 PM EST
Nautical Twilight 5:55 AM EST 6:07 PM EST
Astronomical Twilight 5:24 AM EST 6:38 PM EST
Moon 8:16 PM EST (11/14) 10:08 AM EST (11/14)
Length of Visible Light 11h 10m
Length of Day
10h 15m
Waning Gibbous, 87% of the Moon is Illuminated
Nov 14
Waning Gibbous
Nov 18
Last Quarter
Nov 25
New
Dec 2
First Quarter
Dec 10
Full

Hourly Weather History & Observations

Time (EST) Temp. Dew Point Humidity Pressure Visibility Wind Dir Wind Speed Gust Speed Precip Events Conditions
12:53 AM 48.9 °F 45.0 °F 86% 30.08 in 10.0 mi SW 3.5 mph - N/A   Clear
1:53 AM 46.9 °F 44.1 °F 90% 30.08 in 10.0 mi Calm Calm - N/A   Clear
2:53 AM 48.9 °F 46.0 °F 90% 30.08 in 10.0 mi SW 4.6 mph - N/A   Clear
3:53 AM 48.9 °F 46.0 °F 90% 30.08 in 10.0 mi SW 3.5 mph - N/A   Clear
4:53 AM 48.2 °F 44.6 °F 87% 30.10 in 10.0 mi SSW 3.5 mph - N/A   Clear
5:53 AM 48.9 °F 46.0 °F 90% 30.07 in 10.0 mi SSW 5.8 mph - N/A   Clear
6:53 AM 52.0 °F 46.9 °F 83% 30.06 in 10.0 mi SSW 5.8 mph - N/A   Clear
7:53 AM 53.1 °F 46.9 °F 80% 30.08 in 10.0 mi SW 5.8 mph - N/A   Clear
8:53 AM 59.0 °F 48.2 °F 67% 30.10 in 10.0 mi SW 11.5 mph - N/A   Clear
9:53 AM 63.0 °F 48.0 °F 58% 30.07 in 10.0 mi SW 12.7 mph 20.7 mph N/A   Clear
10:53 AM 68.0 °F 48.9 °F 50% 30.06 in 10.0 mi WSW 18.4 mph 26.5 mph N/A   Clear
11:53 AM 71.1 °F 50.0 °F 47% 30.02 in 10.0 mi SW 15.0 mph 26.5 mph N/A   Clear
12:53 PM 72.0 °F 50.0 °F 46% 29.99 in 10.0 mi SW 15.0 mph 24.2 mph N/A   Clear
1:53 PM 73.0 °F 51.1 °F 46% 29.97 in 10.0 mi SW 12.7 mph 26.5 mph N/A   Clear
2:53 PM 73.9 °F 52.0 °F 46% 29.94 in 10.0 mi WSW 12.7 mph 25.3 mph N/A   Clear
3:53 PM 72.0 °F 52.0 °F 49% 29.95 in 10.0 mi SW 18.4 mph 26.5 mph N/A   Scattered Clouds
4:53 PM 69.1 °F 52.0 °F 54% 29.95 in 10.0 mi SW 12.7 mph 19.6 mph N/A   Clear
5:53 PM 68.0 °F 52.0 °F 56% 29.97 in 10.0 mi SW 12.7 mph - N/A   Clear
6:53 PM 64.9 °F 52.0 °F 63% 29.97 in 10.0 mi SW 8.1 mph - N/A   Clear
7:53 PM 60.1 °F 51.1 °F 72% 29.97 in 10.0 mi SSW 4.6 mph - N/A   Clear
8:53 PM 59.0 °F 52.0 °F 78% 29.96 in 10.0 mi SW 3.5 mph - N/A   Clear
9:53 PM 59.0 °F 52.0 °F 78% 29.95 in 10.0 mi SSW 4.6 mph - N/A   Clear
10:53 PM 59.0 °F 52.0 °F 78% 29.94 in 10.0 mi Calm Calm - N/A   Clear
11:53 PM 59.0 °F 53.1 °F 81% 29.95 in 10.0 mi WSW 4.6 mph - N/A   Scattered Clouds